OMAAHKJK

Guest
Details From OMAA - Abu Dhabi Intl
To HKJK - Nairobi Jomo Kanyatta Intl
Flight Number -
Tags Generated
Created
Modified
Stats Distance 1,861 nm / 3,446 km
Max Altitude 0 ft / 0 m
Waypoints 4
Social Downloads 0
Likes 0
Share VATSIM

Download

Looking for another format? Having issues loading an existing format? Contact us
Advertisement - Login to hide

Notes

Generated

Route

OMAA MEGPO R1659 HKJK

ID Type Via Altitude Latitude Longitude Leg Dist Tot Dist Heading (true) Name
O OMAA APT - 0 ft / 0 m 24.44439˚ 54.63521˚ - 0 nm - -
MEGPO FIX - 0 ft / 0 m 14.71583˚ 47.57722˚ 707 nm 707 nm 216° / 213° -
R1659 FIX - 0 ft / 0 m -1.32759˚ 36.91636˚ 1153 nm 1860 nm 214° / 213° -
O HKJK APT - 0 ft / 0 m -1.32774˚ 36.91612˚ 0 nm 1860 nm 238° / 238° -

Altitude Profile

Advertisement - Login to hide

Weather


0- 5 10 15 20 25 30 35+ Temperature / ° C

Clouds and Precipitation
Forecast for 2018-05-23 06:00 UTC. Updated 13 minutes ago

Ground ~20,000 ft ~40,000 ft Winds

OMAA

Details ICAO OMAA (AUH)
Name ABU DHABI INTL
Region United Arab Emirates
Timezone Asia/Dubai (UTC+4.0)
Stats Elevation 88 ft / 27 m (AMSL)
Location 24.433049° 54.651182°
Runways 1
Magnetic Variation 2.000° E

METAR

OMAA 230500Z 19006KT 150V210 CAVOK 34/02 Q1009 NOSIG

Decode

TAF

TAF OMAA 222300Z 2300/2406 06006KT 8000 NSC BECMG 2302/2304 17012KT PROB30 TEMPO 2304/2306 18017KT 4000 BLDU BECMG 2308/2310 33012KT BECMG 2318/2320 04006KT BECMG 2401/2403 12008KT

Decode

Departure Runways

ID Width Length Bearing (true) Bearing (mag) Surface Threshold Offset Overrun Length
13 148 ft / 45 m 13,461 ft / 4,103 m 127.94° 125.94° Asphalt 0 ft / 0 m 180 ft / 55 m
31 148 ft / 45 m 13,461 ft / 4,103 m 307.95° 305.95° Asphalt 0 ft / 0 m 196 ft / 60 m

HKJK

Details ICAO HKJK (NBO)
Name Nairobi Jomo Kanyatta Intl
Region Kenya
Timezone Africa/Nairobi (UTC+3.0)
Stats Elevation 5,330 ft / 1,625 m (AMSL)
Location -1.317073° 36.930757°
Runways 1
Magnetic Variation 0.591° E

METAR

HKJK 230500Z 15008KT 9999 SCT005 BKN015 BKN090 16/15 Q1024

Decode

TAF

TAF TAF HKJK 222300Z 2300/2406 24005KT 9999 SHRA SCT024 BKN080 BECMG 2303/2306 14008KT BKN019 BKN080

Decode

Destination Runways

ID Width Length Bearing (true) Bearing (mag) Surface Threshold Offset Overrun Length
06 148 ft / 45 m 13,215 ft / 4,028 m 53.90° 53.31° Asphalt 0 ft / 0 m 194 ft / 59 m
24 148 ft / 45 m 13,215 ft / 4,028 m 233.90° 233.31° Asphalt 0 ft / 0 m 197 ft / 60 m

Approach Navaids

Runway Type Ident Frequency Range Bearing (true) Bearing (mag) Slope Elevation
06 Localiser INL 110.30 MHz 18 nm / 33 km 53.84° 53.25° - 5,278 ft / 1,609 m (AMSL)
06 Glidescope INL 110.30 MHz 10 nm / 19 km 53.90° 53.31° 3.00° 5,343 ft / 1,629 m (AMSL)

Popular Alternatives